Location: Churchill Northern Studies Centre
(58.7378°N, 93.8201°W)
Time: 03:52:04
(UTC-05:00)

Vanguard 1 - All Passes

Search period start: 20 October 2017 00:00
Search period end: 30 October 2017 00:00
Orbit: 650 x 3834 km, 34.3° (Epoch: 18 October)

Date Brightness Start Highest point End Pass type
(mag) Time Alt. Az. Time Alt. Az. Time Alt. Az.
20 Oct - 00:15:16 10° SSE 00:22:59 16° SE 00:32:31 10° ESE visible
20 Oct - 02:29:33 10° SSW 02:42:32 30° SSE 02:59:49 10° ESE visible
20 Oct - 04:48:35 10° WSW 05:04:08 32° S 05:22:42 10° SE visible
20 Oct - 07:11:12 10° WSW 07:25:44 23° SSW 07:40:51 10° S visible
21 Oct - 00:33:57 10° S 00:42:55 19° SE 00:54:37 10° ESE visible
21 Oct - 02:49:42 10° SW 03:02:56 31° SSE 03:20:38 10° ESE visible
21 Oct - 05:09:22 10° WSW 05:24:38 31° SSW 05:42:44 10° SE visible
21 Oct - 07:33:05 10° WSW 07:45:54 19° SW 07:59:13 10° S daylight
22 Oct - 00:53:13 10° S 01:02:59 22° SSE 01:16:12 10° ESE visible
22 Oct - 03:10:02 10° SW 03:23:24 31° S 03:41:17 10° ESE visible
22 Oct - 05:30:18 10° WSW 05:45:05 28° SSW 06:02:27 10° SSE visible
22 Oct - 07:55:46 10° WSW 08:05:58 15° SW 08:16:30 10° SSW daylight
23 Oct - 01:12:52 10° SSW 01:23:10 25° SSE 01:37:27 10° ESE visible
23 Oct - 03:30:30 10° SW 03:43:53 31° S 04:01:44 10° SE visible
23 Oct - 05:51:28 10° WSW 06:05:30 25° SSW 06:21:48 10° SSE visible
23 Oct - 08:20:46 10° WSW 08:25:56 11° SW 08:31:12 10° SW daylight
23 Oct - 23:19:47 10° SSE 23:24:33 13° SE 23:30:12 10° ESE visible
24 Oct - 01:32:48 10° SSW 01:43:27 27° SSE 01:58:29 10° ESE visible
24 Oct - 03:51:07 10° WSW 04:04:24 30° S 04:21:58 10° SE visible
24 Oct - 06:12:55 10° WSW 06:25:51 22° SSW 06:40:38 10° S visible
24 Oct - 23:38:03 10° S 23:44:30 16° SE 23:52:46 10° ESE visible
25 Oct - 01:52:57 10° SW 02:03:49 28° SSE 02:19:20 10° ESE visible
25 Oct - 04:11:54 10° WSW 04:24:56 28° SSW 04:41:57 10° SE visible
25 Oct - 06:34:52 10° WSW 06:46:08 18° SW 06:58:46 10° S visible
25 Oct - 23:57:10 10° S 00:04:34 18° SE 00:14:31 10° ESE visible
26 Oct - 02:13:17 10° SW 02:24:16 28° S 02:39:58 10° SE visible
26 Oct - 04:32:51 10° WSW 04:45:26 26° SSW 05:01:35 10° SSE visible
26 Oct - 06:57:48 10° WSW 07:06:21 14° SW 07:15:37 10° SSW visible
27 Oct - 00:16:46 10° SSW 00:24:44 21° SSE 00:35:52 10° ESE visible
27 Oct - 02:33:45 10° SW 02:44:45 28° S 03:00:24 10° SE visible
27 Oct - 04:54:03 10° WSW 05:05:55 23° SSW 05:20:49 10° SSE visible
28 Oct - 00:36:40 10° SSW 00:45:01 23° SSE 00:56:56 10° ESE visible
28 Oct - 02:54:23 10° SW 03:05:17 27° S 03:20:36 10° SE visible
28 Oct - 05:15:36 10° WSW 05:26:21 19° SSW 05:39:28 10° S visible
28 Oct - 22:43:19 10° SSE 22:46:40 12° SE 22:50:32 10° ESE night (unlit)
29 Oct - 00:56:48 10° SSW 01:05:22 24° SSE 01:17:46 10° ESE visible
29 Oct - 03:15:11 10° WSW 03:25:49 25° S 03:40:31 10° SE visible
29 Oct - 05:37:48 10° WSW 05:46:44 16° SW 05:57:13 10° S visible
29 Oct - 23:01:53 10° S 23:06:44 14° SE 23:12:50 10° ESE night (unlit)
